Find Starlink 31022

NORAD ID: 58633 Int'l Des: 2023-203 Owner: SPXS Country: US Constellation: starlink operational
LEOCIRCULAR

Live Position

Loading 3D Globe...

About Starlink 31022

Description loading...

Upcoming Passes

Passes for default location (London). Set your location on the main map for personalized predictions.

Altitude History

Loading altitude history...

Two-Line Element Set

1 58633U 23203R 26121.30998312 .00000420 00000-0 24778-4 0 9990
2 58633 43.0016 133.8124 0001251 264.8262 95.2447 15.27579952132797
Epoch: May 1, 2026 • Age: 8 hours

Current Status

Altitude 485.8 km
Velocity 7.63 km/s
Sub-Earth Point 37.65°N, 94.27°E
Launch Date Dec 23, 2023
Age 2.3 years
Type internet

Technical Details

Classification Payload
Mass 730.00 kg
Dry Mass 700.00 kg
Total Mass 730.00 kg
Length 0.30 m
Diameter 4.10 m
Span 29.00 m
Shape Box + pan
Manufacturer SPXS
Bus Type Starlink V2M
Phase Status In Orbit
Owner/State SPXS/US

Most Searched